Weather History for Peru, IL

Change the Weather History Date:

Sunday, February 24, 2013

  Actual Average Record
Temperature  
Mean Temperature 25 °F -  
Max Temperature 36 °F 39 °F 65 °F (1976)
Min Temperature 14 °F 21 °F -8 °F (1989)
Degree Days  
Heating Degree Days 40    
Moisture  
Dew Point 21 °F    
Average Humidity 78    
Maximum Humidity 93    
Minimum Humidity 56    
Precipitation  
Precipitation 0.00 in - - ()
Sea Level Pressure  
Sea Level Pressure 30.08 in    
Wind  
Wind Speed 5 mph (South)    
Max Wind Speed 9 mph    
Max Gust Speed -    
Visibility 9 miles    
Events      
Averages and records for this station are not official NWS values.
T = Trace of Precipitation, MM = Missing Value Source: NWS Daily Summary

Daily Weather History Graph

Daily Weather History Graph

Search for Another Location

Airport:

Trip Planner

Search our weather history database for the weather conditions in past years. The results will help you decide how hot, cold, wet, or windy it might be!

Date:

Astronomy

Feb. 24, 2013 Rise Set
Actual Time 6:38 AM CST 5:41 PM CST
Civil Twilight 6:10 AM CST 6:09 PM CST
Nautical Twilight 5:38 AM CST 6:41 PM CST
Astronomical Twilight 5:06 AM CST 7:13 PM CST
Moon 4:52 PM CST (2/24) 5:35 AM CST (2/24)
Length of Visible Light 11h 59m
Length of Day
11h 03m
Waxing Gibbous, 99% of the Moon is Illuminated
Feb 24
Waxing Gibbous
Feb 25
Full
Mar 4
Last Quarter
Mar 11
New
Mar 19
First Quarter

Hourly Weather History & Observations

Time (CST) Temp. Windchill Dew Point Humidity Pressure Visibility Wind Dir Wind Speed Gust Speed Precip Events Conditions
12:15 AM 20.3 °F 10.6 °F 16.0 °F 83% 29.98 in 10.0 mi WSW 8.1 mph - N/A   Clear
12:35 AM 20.1 °F 9.5 °F 16.2 °F 85% 29.99 in 10.0 mi West 9.2 mph - N/A   Clear
12:55 AM 19.4 °F 9.5 °F 15.8 °F 86% 30.00 in 10.0 mi West 8.1 mph - N/A   Clear
1:15 AM 18.5 °F 8.4 °F 14.9 °F 86% 30.00 in 10.0 mi West 8.1 mph - N/A   Clear
1:35 AM 18.0 °F 7.7 °F 14.7 °F 87% 30.00 in 7.0 mi WSW 8.1 mph - N/A   Clear
1:55 AM 17.4 °F 9.1 °F 14.0 °F 86% 30.01 in 10.0 mi WSW 5.8 mph - N/A   Clear
2:15 AM 17.6 °F 8.2 °F 14.7 °F 88% 30.01 in 7.0 mi West 6.9 mph - N/A   Clear
2:35 AM 17.6 °F 7.3 °F 14.7 °F 88% 30.00 in 7.0 mi West 8.1 mph - N/A   Clear
2:55 AM 17.1 °F 5.8 °F 14.0 °F 88% 30.00 in 7.0 mi WSW 9.2 mph - N/A   Clear
3:15 AM 18.1 °F 7.9 °F 15.1 °F 88% 30.00 in 7.0 mi WSW 8.1 mph - N/A   Clear
3:35 AM 17.4 °F 9.1 °F 14.5 °F 88% 30.00 in 7.0 mi West 5.8 mph - N/A   Clear
3:55 AM 17.1 °F 8.7 °F 14.0 °F 88% 30.01 in 7.0 mi West 5.8 mph - N/A   Clear
4:15 AM 16.3 °F 9.2 °F 14.0 °F 90% 30.01 in 7.0 mi West 4.6 mph - N/A   Clear
4:35 AM 16.7 °F 9.6 °F 14.4 °F 91% 30.03 in 7.0 mi West 4.6 mph - N/A   Clear
4:55 AM 16.3 °F 9.2 °F 13.8 °F 90% 30.03 in 7.0 mi West 4.6 mph - N/A   Clear
5:15 AM 15.6 °F 5.9 °F 13.1 °F 90% 30.04 in 7.0 mi West 6.9 mph - N/A   Clear
5:35 AM 14.7 °F 7.3 °F 12.4 °F 90% 30.05 in 7.0 mi WNW 4.6 mph - N/A   Clear
5:55 AM 15.8 °F 10.2 °F 14.0 °F 93% 30.06 in 7.0 mi West 3.5 mph - N/A   Clear
6:15 AM 16.7 °F - 14.4 °F 91% 30.07 in 7.0 mi Calm Calm - N/A   Clear
6:35 AM 16.2 °F - 13.8 °F 90% 30.07 in 5.0 mi Calm Calm - N/A   Clear
6:55 AM 15.1 °F - 12.9 °F 91% 30.07 in 4.0 mi Calm Calm - N/A   Clear
7:15 AM 16.7 °F - 14.5 °F 91% 30.07 in 5.0 mi Calm Calm - N/A   Clear
7:35 AM 17.6 °F - 14.9 °F 89% 30.08 in 5.0 mi Calm Calm - N/A   Clear
7:55 AM 19.4 °F - 15.8 °F 86% 30.09 in 5.0 mi Calm Calm - N/A   Clear
8:15 AM 20.1 °F 12.3 °F 16.3 °F 85% 30.11 in 5.0 mi SW 5.8 mph - N/A   Clear
8:35 AM 21.2 °F - 16.7 °F 83% 30.12 in 5.0 mi Calm Calm - N/A   Clear
8:55 AM 23.0 °F - 18.1 °F 82% 30.11 in 5.0 mi Calm Calm - N/A   Haze
9:15 AM 24.6 °F - 19.0 °F 79% 30.12 in 7.0 mi Calm Calm - N/A   Clear
9:35 AM 25.3 °F - 19.6 °F 79% 30.11 in 7.0 mi Calm Calm - N/A   Clear
9:55 AM 26.8 °F - 20.3 °F 77% 30.11 in 7.0 mi Calm Calm - N/A   Clear
10:15 AM 28.6 °F - 20.5 °F 72% 30.12 in 10.0 mi Calm Calm - N/A   Clear
10:35 AM 29.1 °F - 21.0 °F 72% 30.12 in 10.0 mi Calm Calm - N/A   Clear
10:55 AM 30.9 °F - 20.5 °F 65% 30.12 in 10.0 mi Calm Calm - N/A   Clear
11:15 AM 32.0 °F - 20.3 °F 62% 30.12 in 10.0 mi Calm Calm - N/A   Clear
11:35 AM 32.4 °F - 18.1 °F 56% 30.12 in 10.0 mi Calm Calm - N/A   Clear
11:55 AM 33.3 °F - 20.7 °F 60% 30.11 in 10.0 mi Calm Calm - N/A   Clear
12:15 PM 34.2 °F - 21.6 °F 60% 30.11 in 10.0 mi Calm Calm - N/A   Clear
12:35 PM 34.9 °F - 22.6 °F 61% 30.11 in 10.0 mi Calm Calm - N/A   Clear
12:55 PM 34.7 °F - 23.2 °F 63% 30.11 in 10.0 mi Calm Calm - N/A   Clear
1:15 PM 35.6 °F - 22.3 °F 58% 30.10 in 10.0 mi Calm Calm - N/A   Clear
1:35 PM 35.6 °F - 22.3 °F 58% 30.10 in 10.0 mi Calm Calm - N/A   Clear
1:55 PM 36.0 °F - 22.8 °F 59% 30.10 in 10.0 mi Calm Calm - N/A   Clear
2:15 PM 36.7 °F 32.0 °F 24.8 °F 62% 30.10 in 10.0 mi SW 5.8 mph - N/A   Clear
2:35 PM 36.5 °F 31.8 °F 23.9 °F 60% 30.10 in 10.0 mi WSW 5.8 mph - N/A   Clear
2:55 PM 36.0 °F 30.3 °F 24.1 °F 62% 30.10 in 10.0 mi WSW 6.9 mph - N/A   Clear
3:15 PM 36.5 °F 32.7 °F 25.0 °F 63% 30.10 in 10.0 mi ESE 4.6 mph - N/A   Clear
3:35 PM 36.9 °F 32.2 °F 25.5 °F 64% 30.10 in 10.0 mi ESE 5.8 mph - N/A   Clear
3:55 PM 36.9 °F 34.3 °F 25.5 °F 64% 30.09 in 10.0 mi SW 3.5 mph - N/A   Clear
4:15 PM 36.9 °F 34.3 °F 25.9 °F 64% 30.09 in 10.0 mi ESE 3.5 mph - N/A   Clear
4:35 PM 36.5 °F 33.9 °F 25.9 °F 65% 30.09 in 10.0 mi ESE 3.5 mph - N/A   Clear
4:55 PM 36.1 °F 32.3 °F 26.6 °F 68% 30.09 in 10.0 mi ESE 4.6 mph - N/A   Clear
5:15 PM 35.1 °F 31.0 °F 27.1 °F 73% 30.09 in 10.0 mi ESE 4.6 mph - N/A   Clear
5:35 PM 34.3 °F 30.2 °F 26.6 °F 73% 30.09 in 10.0 mi ESE 4.6 mph - N/A   Clear
5:55 PM 34.3 °F 31.4 °F 26.2 °F 72% 30.10 in 10.0 mi SE 3.5 mph - N/A   Clear
6:15 PM 34.3 °F 29.2 °F 26.6 °F 73% 30.10 in 10.0 mi SE 5.8 mph - N/A   Clear
6:35 PM 34.3 °F 30.2 °F 26.6 °F 73% 30.11 in 10.0 mi ESE 4.6 mph - N/A   Clear
6:55 PM 33.4 °F 28.1 °F 26.4 °F 75% 30.11 in 10.0 mi SE 5.8 mph - N/A   Clear
7:15 PM 33.1 °F 27.7 °F 26.4 °F 77% 30.11 in 10.0 mi ESE 5.8 mph - N/A   Clear
7:35 PM 32.7 °F 28.3 °F 26.4 °F 78% 30.11 in 10.0 mi SE 4.6 mph - N/A   Clear
7:55 PM 32.5 °F 28.1 °F 26.1 °F 77% 30.11 in 10.0 mi ESE 4.6 mph - N/A   Clear
8:15 PM 30.9 °F 26.2 °F 25.7 °F 81% 30.11 in 10.0 mi ESE 4.6 mph - N/A   Clear
8:35 PM 30.2 °F 26.7 °F 25.7 °F 83% 30.12 in 10.0 mi East 3.5 mph - N/A   Clear
8:55 PM 30.2 °F 25.4 °F 25.7 °F 83% 30.12 in 10.0 mi East 4.6 mph - N/A   Clear
9:15 PM 29.5 °F 24.5 °F 25.5 °F 85% 30.12 in 10.0 mi East 4.6 mph - N/A   Clear
9:35 PM 29.8 °F 24.9 °F 25.7 °F 85% 30.12 in 10.0 mi East 4.6 mph - N/A   Clear
9:55 PM 29.8 °F 24.9 °F 25.5 °F 84% 30.12 in 10.0 mi ESE 4.6 mph - N/A   Clear
10:15 PM 30.0 °F 26.5 °F 25.3 °F 83% 30.12 in 10.0 mi ESE 3.5 mph - N/A   Clear
10:35 PM 29.1 °F 23.0 °F 25.5 °F 86% 30.13 in 10.0 mi ESE 5.8 mph - N/A   Clear
10:55 PM 29.7 °F 23.7 °F 25.2 °F 83% 30.12 in 10.0 mi ESE 5.8 mph - N/A   Clear
11:15 PM 28.8 °F 23.7 °F 24.4 °F 84% 30.12 in 7.0 mi ESE 4.6 mph - N/A   Clear
11:35 PM 28.9 °F 25.2 °F 25.0 °F 85% 30.13 in 10.0 mi SE 3.5 mph - N/A   Clear
11:55 PM 27.0 °F 21.6 °F 23.5 °F 87% 30.12 in 7.0 mi ESE 4.6 mph - N/A   Clear